Regional Weather Roundup
Issued by NWS Charleston, WV

Home | Current Version | Previous Version | Graphics & Text | Print | Product List | Glossary On
Versions: 1 2 3 4 5 6 7 8 9 10 11 12 13 14 15 16 17 18 19 20 21 22 23 24 25 26 27 28 29 30 31 32 33 34 35 36 37 38 39 40 41 42 43 44 45 46 47 48 49 50
000
ASUS41 KRLX 241810
RWRRLX
West Virginia Regional Weather Roundup
National Weather Service Charleston WV
100 PM EST SAT JAN 24 2015

Note: "fair" indicates few or no clouds below 12,000 feet with no
significant weather and/or obstructions to visibility.

WVZ003-241900-
Northern Panhandle of West Virginia

CITY           SKY/WX    TMP DP  RH WIND       PRES   REMARKS
WHEELING       CLOUDY    28  22  78 W10       29.62F
$$

WVZ009-241900-
Northwest West Virginia

CITY           SKY/WX    TMP DP  RH WIND       PRES   REMARKS
PARKERSBURG    CLOUDY    28  25  88 SW8       29.73F FOG
$$

WVZ006-241900-
Western West Virginia

CITY           SKY/WX    TMP DP  RH WIND       PRES   REMARKS
HUNTINGTON     MIX PCPN  29  27  92 SW9       29.77F
$$

WVZ015-241900-
West Central West Virginia

CITY           SKY/WX    TMP DP  RH WIND       PRES   REMARKS
CHARLESTON     CLOUDY    31  27  85 W8G17     29.73F
$$

WVZ022-031-241900-
North Central West Virginia

CITY           SKY/WX    TMP DP  RH WIND       PRES   REMARKS
CLARKSBURG     CLOUDY    30  25  81 W13G21    29.65S
MORGANTOWN     CLOUDY    30  24  78 SW8       29.63S
$$

WVZ025-035-042-045-241900-
Southern West Virginia

CITY           SKY/WX    TMP DP  RH WIND       PRES   REMARKS
BECKLEY        CLOUDY    29  23  78 NW13G21   29.65S
LOGAN          CLOUDY    30  27  86 W13G20    29.72F
BLUEFIELD      CLOUDY    30  24  78 W14G26    29.64F
LEWISBURG      CLOUDY    32  27  83 W10G20    29.61S
$$

WVZ047-241900-
Northern Mountains of West Virginia

CITY           SKY/WX    TMP DP  RH WIND       PRES   REMARKS
ELKINS         CLOUDY    31  25  78 W14       29.61S
$$

WVZ052-241900-
Eastern Panhandle of West Virginia

CITY           SKY/WX    TMP DP  RH WIND       PRES   REMARKS
MARTINSBURG    CLOUDY    39  32  76 NW5       29.49F
PETERSBURG     CLOUDY    37  36  95 S3        29.54F
$$



USA.gov is the U.S. government's official web portal to all federal, state and local government web resources and services.